Regional Weather Roundup
Issued by NWS Newport/Morehead, NC

Current Version | Previous Version | Text Only | Print | Product List | Glossary Off
Versions: 1 2 3 4 5 6 7 8 9 10 11 12 13 14 15 16 17 18 19 20 21 22 23 24 25 26 27 28 29 30 31 32 33 34 35 36 37 38 39 40 41 42 43 44 45 46 47 48 49 50
000 ASUS42 KMHX 230825 RWRMHX WEATHER ROUNDUP FOR EASTERN NORTH CAROLINA NATIONAL WEATHER SERVICE NEWPORT/MOREHEAD CITY NC 400 AM EDT TUE MAY 23 2017 NOTE: "FAIR" INDICATES FEW OR NO CLOUDS BELOW 12,000 FEET WITH NO SIGNIFICANT WEATHER AND/OR OBSTRUCTIONS TO VISIBILITY NCZ015>017-031-032-045>047-102-103-230900- NORTH COAST CITY SKY/WX TMP DP RH WIND PRES REMARKS EDENTON CLOUDY 73 69 87 CALM 29.91F ELIZABETH CITY CLOUDY 69 69 100 CALM 29.91F KITTY HAWK NOT AVBL MANTEO CLOUDY 70 69 95 W3 29.90F $$ NCZ045>047-081-094-103-104-230900- CENTRAL COAST CITY SKY/WX TMP DP RH WIND PRES REMARKS FRISCO LGT RAIN 72 69 90 SW8 29.91F $$ NCZ095-097-098-100-101-230900- SOUTHERN COAST CITY SKY/WX TMP DP RH WIND PRES REMARKS BEAUFORT CLOUDY 72 71 97 CALM 29.90F CEDAR ISLAND NOT AVBL JACKSONVILLE CLOUDY 69 69 100 CALM 29.89S PINEY ISLAND CLOUDY N/A N/A N/A CALM 29.90F WILMINGTON LGT RAIN 68 67 96 CALM 29.89F $$ NCZ011>013-027>030-043-044-078>080-089-090>093-098-230900- COASTAL PLAIN CITY SKY/WX TMP DP RH WIND PRES REMARKS AHOSKIE N/A 65 65 99 CALM 29.91S CLINTON DRIZZLE 67 67 100 CALM 29.89F ELIZABETHTOWN CLOUDY 66 66 100 CALM 29.88F GOLDSBORO CLOUDY 68 68 100 CALM 29.87F GREENVILLE CLOUDY 68 68 100 CALM 29.92F FOG HAVELOCK NOT AVBL KENANSVILLE CLOUDY 66 66 100 CALM 29.89F FOG KINSTON CLOUDY 67 67 99 CALM 29.90S NEW BERN CLOUDY 67 67 100 S3 29.91S RICHLANDS LGT RAIN 67 66 97 NE3 29.90S FOG ROCKY MOUNT CLOUDY 67 67 100 CALM 29.89F WASHINGTON CLOUDY 67 67 97 CALM 29.90F WHITEVILLE HVY RAIN 67 65 94 SE5 29.88S $$ AMZ130-135-150-152-154-156-158-170-250-252-270-ANZ085-086-088-633-658-670-230900- MARINE OBSERVATIONS STATION/POSITION TIME TEMP WIND PRES WAVE SWELL AIR SEA DIR/SP/G HT/PER HT/PER (UTC) (F) (DEG/KT/KT) (MB) (FT/S) (FT/S) CHESAPEAKE LIGHT NOT AVBL 64 E VA BEACH 0750 64 65 310/ 4/ 4 1013.4 3/ 8 3/ 8 DUCK 0800 71 64 290/ 4/ 5 1012.1 2 E DUCK 0800 65 N/A 2/ 9 OREGON INLET 0800 74 220/ 6/ 9 1012.2 13E OREGON INLT 0748 65 N/A 3/ 7 2/ 7 HATTERAS CG 0800 72 75 200/ 7/ 9 1012.2 DIAMOND BUOY 0750 75 78 190/ 19/ 23 1012.6 4/ 5 2/ 8 CAPE LOOKOUT 0800 73 220/ 3/ 4 1012.1 BEAUFORT LAB 0800 73 74 200/ 3/ 5 1011.6 30 SE NEW RVR IN 0708 72 76 190/ 4/ 8 1012.8 30 SE NEW RVR IN 0813 76 N/A 3/ 5 27 SE WRIGHTSVLE 0708 72 76 150/ 6/ 10 1031.5 5 SE WRIGHTSVLE 0708 72 74 150/ 4/ 8 1012.3 225 S CAPE HAT 0750 75 76 180/ 16/ 17 1015.1 3/ 8 2/ 8 41 SE CHARLESTON 0810 77 78 240/ 16/ 19 1011.0 $$

USA.gov is the U.S. government's official web portal to all federal, state and local government web resources and services.